Location: Cedar Brake
(32.2526°N, 97.8459°W)
Time: 20:18:29
(UTC+00:00)

Meteor 2-15 Rocket - Pass Details

Date: 22 April 2026
Orbit: 940 x 955 km, 82.5° (Epoch: 21 May)

Event Time Altitude Azimuth Distance (km) Brightness Sun altitude
Rises 02:18:37 0° 182° (S) 3,586 7.2 -15.4°
Reaches altitude 10° 02:21:05 10° 181° (S) 2,645 6.5 -15.8°
Maximum altitude 02:27:08 81° 95° (E) 957 4.3 -17.0°
Drops below altitude 10° 02:33:14 10° 9° (N) 2,667 7.0 -18.1°
Sets 02:35:43 0° 8° (N) 3,617 7.8 -18.6°
